[[{"header":{"parameterUnit":"m.s-1","parameterCategory":1,"la1":30.2991,"la2":30.254,"lo1":-89.0895,"lo2":-89.0444,"dy":0.0017,"dx":0.0017,"nx":28,"ny":28,"refTime":"2024-12-15T09:00:00:Z","depth":0,"parameterNumber":2,"parameterNumberName":"U-component_of_WINDS"},"data":[0,0,0,0,0,0,0,0,0,0,0,0,0,0,0,0,0,0,0,0,0,0,0,0,0,0,0,0,0,0,0,0,0,0,0,0,0,0,0,0,0,0,0,0,0,0,0,0,0,0,0,0,0,0,0,0,0,0,-3.3505,-3.3505,0,-3.3511,-3.3511,-3.3511,-3.3442,-3.344,-3.3438,-3.3436,-3.3442,-3.3444,-3.3446,0,0,0,0,0,0,0,0,0,0,0,0,0,-3.3432,-3.3434,-3.3505,-3.3505,-3.3505,-3.3511,-3.3511,-3.3511,-3.3442,-3.344,-3.3438,-3.3435,-3.3441,-3.3444,-3.3446,0,0,0,0,0,0,0,0,0,0,0,0,0,-3.3454,-3.3435,-3.3505,-3.3471,-3.3468,-3.3511,-3.3511,-3.3511,-3.3443,-3.344,-3.3437,-3.3434,-3.3441,-3.3443,-3.3446,-3.3521,0,0,-3.3455,-3.3456,0,0,0,0,0,0,0,0,-3.3453,-3.3457,-3.3476,-3.3474,-3.347,-3.3473,-3.3488,-3.3515,-3.3443,-3.3452,-3.3436,-3.3433,-3.3454,-3.3456,-3.3463,-3.3521,-3.3522,-3.3455,-3.3457,-3.3458,-3.3459,0,0,0,0,0,0,0,-3.3451,-3.3456,-3.3507,-3.3476,-3.3473,-3.3456,-3.3456,-3.3492,-3.3469,-3.3451,-3.3446,-3.3448,-3.3452,-3.3461,-3.3463,-3.3522,-3.3455,-3.3458,-3.346,-3.3461,-3.3642,-3.3645,0,0,0,0,0,0,-3.3454,-3.3455,-3.3507,-3.3507,-3.3454,-3.3459,-3.3459,-3.3475,-3.3469,-3.3465,-3.3451,-3.3445,-3.3457,-3.346,-3.3463,-3.3551,-3.3458,-3.3461,-3.3463,-3.3639,-3.3643,-3.3646,0,0,0,0,0,0,-3.3453,-3.346,-3.3507,-3.348,-3.3485,-3.3464,-3.3482,-3.3477,-3.3485,-3.3468,-3.3464,-3.3464,-3.3455,-3.3459,-3.3507,-3.355,-3.3462,-3.3465,-3.3635,-3.364,-3.3644,-3.3726,0,0,0,0,0,0,-3.3451,-3.346,-3.3488,-3.3481,-3.3486,-3.3551,-3.3484,-3.3479,-3.349,-3.3483,-3.3479,-3.3476,-3.3453,-3.3503,-3.351,-3.3552,-3.3467,-3.3631,-3.3637,-3.3643,-3.372,-3.3733,-3.3745,0,0,0,0,0,-3.3449,-3.351,-3.349,-3.3496,-3.3521,-3.3554,-3.3557,-3.353,-3.3494,-3.3522,-3.3512,-3.3476,-3.3544,-3.3509,-3.3516,-3.356,-3.3629,-3.3636,-3.3642,-3.3714,-3.3731,-3.3744,0,0,0,0,0,0,-3.3522,-3.3509,-3.3486,-3.3547,-3.3552,-3.3542,-3.3577,-3.3548,-3.3563,-3.3556,-3.3522,-3.3521,-3.3576,-3.3572,-3.3533,-3.3632,-3.358,-3.3589,-3.3632,-3.3648,-3.366,-3.3659,-3.347,0,0,0,0,0,-3.3545,-3.3573,-3.356,-3.3615,-3.3619,-3.3598,-3.3611,-3.359,-3.3594,-3.3596,-3.3588,-3.3594,-3.3616,-3.3632,-3.3651,-3.3719,-3.3717,-3.3753,-3.3765,-3.3775,-3.3783,-3.3819,-3.3835,-3.3669,-3.3669,-3.3669,0,0,-3.3593,-3.359,-3.3609,-3.363,-3.3631,-3.3661,-3.36,-3.3634,-3.3655,-3.3601,-3.3646,-3.3641,-3.3645,-3.3703,-3.3729,-3.3702,-3.3829,-3.3784,-3.3793,-3.3795,-3.3828,-3.3844,-3.3858,-3.3674,-3.3673,-3.3672,0,0,-3.3696,-3.3696,-3.3743,-3.3746,-3.3749,-3.3735,-3.3746,-3.3741,-3.3736,-3.3781,-3.3741,-3.3766,-3.3806,-3.381,-3.3817,-3.3924,-3.3891,-3.3931,-3.3996,-3.4032,-3.4045,-3.4056,-3.4094,-3.4108,-3.3939,-3.3939,-3.3939,0,-3.3756,-3.3799,-3.377,-3.3807,-3.3817,-3.377,-3.3816,-3.3821,-3.3831,-3.3839,-3.3809,-3.3858,-3.3857,-3.3916,-3.3943,-3.395,-3.3962,-3.3931,-3.4045,-3.4056,-3.4067,-3.4102,-3.4117,-3.3944,-3.3943,-3.3943,-3.3942,0,-3.3872,-3.3902,-3.3939,-3.3951,-3.3965,-3.4007,-3.3984,-3.4002,-3.3981,-3.3969,-3.4016,-3.4014,-3.4032,-3.4045,-3.4024,-3.4102,-3.4085,-3.4051,-3.3998,-3.4088,-3.4121,-3.4134,-3.3951,-3.3949,-3.3948,-3.3946,0,0,-3.4019,-3.4015,-3.4029,-3.4034,-3.4036,-3.4059,-3.4098,-3.4117,-3.4134,-3.4142,-3.4175,-3.421,-3.4179,-3.4187,-3.4166,-3.4198,-3.4282,-3.4159,-3.4159,-3.4182,-3.4368,-3.4394,-3.441,-3.4261,-3.4264,-3.4266,-3.4368,0,-3.412,-3.4187,-3.4163,-3.4232,-3.4261,-3.4217,-3.4251,-3.4256,-3.4247,-3.4269,-3.4259,-3.4285,-3.4242,-3.4247,-3.4276,-3.4266,-3.4319,-3.4258,-3.4291,-3.4293,-3.4291,-3.4427,-3.4454,-3.4551,-3.4381,-3.4383,-3.4385,0,-3.4245,-3.426,-3.4333,-3.433,-3.4341,-3.4372,-3.4388,-3.441,-3.4415,-3.4406,-3.4416,-3.4389,-3.4427,-3.4375,-3.4428,-3.4388,-3.44,-3.4397,-3.44,-3.4402,-3.4344,-3.4433,-3.4581,-3.4596,-3.4405,-3.4403,-3.4402,0,-3.4346,-3.4384,-3.4433,-3.4438,-3.4436,-3.4459,-3.4459,-3.4461,-3.4474,-3.4488,-3.4496,-3.4515,-3.4525,-3.4539,-3.4518,-3.4482,-3.4574,-3.452,-3.4568,-3.4569,-3.4589,-3.4588,-3.4741,-3.4597,-3.4597,-3.4597,-3.4597,0,-3.4461,-3.4507,-3.4478,-3.4508,-3.4558,-3.453,-3.4581,-3.4576,-3.4578,-3.4606,-3.4569,-3.4596,-3.4566,-3.459,-3.4573,-3.462,-3.4625,-3.4619,-3.4614,-3.4622,-3.4623,-3.4629,-3.4622,-3.4601,-3.46,-3.4599,-3.4598,0,-3.4582,-3.4564,-3.4614,-3.4608,-3.4608,-3.4646,-3.464,-3.4668,-3.4657,-3.4693,-3.47,-3.4682,-3.4709,-3.4689,-3.4715,-3.4704,-3.4766,-3.4751,-3.4764,-3.476,-3.4809,-3.4805,-3.4972,-3.4992,-3.4836,-3.4837,-3.4839,0,-3.4656,-3.469,-3.4689,-3.4705,-3.4708,-3.4735,-3.4748,-3.4722,-3.4738,-3.4746,-3.4773,-3.4796,-3.4814,-3.4859,-3.4848,-3.4869,-3.4854,-3.4911,-3.4857,-3.4864,-3.4855,-3.4853,-3.4857,-3.4922,-3.4924,-3.4926,-3.4927,0,-3.4789,-3.4779,-3.48,-3.4819,-3.4837,-3.485,-3.486,-3.4876,-3.4849,-3.4869,-3.4896,-3.491,-3.4937,-3.4962,-3.4978,-3.4978,-3.4949,-3.4944,-3.4956,-3.4965,-3.4971,-3.4969,-3.4794,-3.494,-3.4939,-3.4938,-3.4937,-3.4937,-3.4888,-3.4917,-3.4921,-3.4946,-3.4952,-3.4962,-3.4988,-3.4981,-3.5003,-3.5024,-3.5007,-3.504,-3.5044,-3.5063,-3.5067,-3.5092,-3.5069,-3.5086,-3.5091,-3.5096,-3.5103,-3.4968,-3.5095,-3.5095,-3.5094,-3.5094,-3.5094,0,-3.502,-3.502,-3.5044,-3.506,-3.508,-3.5051,-3.5061,-3.508,-3.511,-3.5116,-3.5135,-3.5167,-3.519,-3.5182,-3.5203,-3.5225,-3.5212,-3.5231,-3.5229,-3.523,-3.5122,-3.511,-3.5242,-3.5242,-3.5242,-3.5242,-3.5242,-3.5241,-3.509,-3.5138,-3.5129,-3.5179,-3.5179,-3.5211,-3.522,-3.523,-3.5235,-3.5272,-3.5292,-3.5287,-3.5288,-3.5309,-3.5329,-3.5326,-3.5336,-3.536,-3.5352,-3.5252,-3.5237,-3.5223,-3.5211,-3.5362,-3.5363,-3.5457,-3.5458,-3.5459]},{"header":{"parameterUnit":"m.s-1","parameterCategory":1,"la1":30.2991,"la2":30.254,"lo1":-89.0895,"lo2":-89.0444,"dy":0.0017,"dx":0.0017,"nx":28,"ny":28,"refTime":"2024-12-15T09:00:00:Z","depth":0,"parameterNumber":3,"parameterNumberName":"V-component_of_WINDS"},"data":[0,0,0,0,0,0,0,0,0,0,0,0,0,0,0,0,0,0,0,0,0,0,0,0,0,0,0,0,0,0,0,0,0,0,0,0,0,0,0,0,0,0,0,0,0,0,0,0,0,0,0,0,0,0,0,0,0,0,1.4465,1.4465,0,1.4508,1.4508,1.4509,1.4538,1.4538,1.4539,1.4539,1.4581,1.4582,1.4583,0,0,0,0,0,0,0,0,0,0,0,0,0,1.4409,1.441,1.4465,1.4465,1.4466,1.4508,1.4508,1.4509,1.4538,1.4538,1.4539,1.4539,1.4581,1.4582,1.4583,0,0,0,0,0,0,0,0,0,0,0,0,0,1.4441,1.441,1.4465,1.4486,1.4488,1.4507,1.4508,1.4509,1.4538,1.4538,1.4539,1.4539,1.4581,1.4582,1.4583,1.4585,0,0,1.4587,1.4588,0,0,0,0,0,0,0,0,1.4439,1.4443,1.4482,1.4484,1.4487,1.4518,1.4504,1.4534,1.4538,1.4519,1.4539,1.4539,1.456,1.4563,1.457,1.4587,1.4589,1.4588,1.4588,1.4589,1.4589,0,0,0,0,0,0,0,1.4437,1.4441,1.4482,1.4483,1.4486,1.4493,1.4498,1.451,1.4537,1.4521,1.4523,1.4528,1.4561,1.4569,1.4571,1.4589,1.4588,1.4589,1.459,1.459,1.4612,1.4612,0,0,0,0,0,0,1.4431,1.4439,1.448,1.4483,1.4463,1.4494,1.4499,1.4508,1.4537,1.4542,1.4527,1.4529,1.4566,1.457,1.4573,1.4578,1.4589,1.459,1.4591,1.4612,1.4612,1.4612,0,0,0,0,0,0,1.443,1.4435,1.4479,1.4462,1.4468,1.4494,1.4504,1.4508,1.4516,1.4542,1.4547,1.453,1.4567,1.4571,1.4582,1.458,1.4591,1.4592,1.4612,1.4612,1.4612,1.4588,0,0,0,0,0,0,1.4428,1.4434,1.4435,1.4462,1.4469,1.4487,1.4503,1.4509,1.4518,1.4521,1.4546,1.455,1.4567,1.458,1.4584,1.4582,1.4593,1.4613,1.4612,1.4612,1.4589,1.4586,1.4584,0,0,0,0,0,1.4426,1.4425,1.4435,1.4439,1.447,1.4487,1.4491,1.4511,1.4518,1.4519,1.4536,1.4549,1.458,1.4581,1.4585,1.4584,1.4613,1.4612,1.4612,1.459,1.4587,1.4585,0,0,0,0,0,0,1.4397,1.4429,1.444,1.4448,1.4465,1.4492,1.4494,1.4507,1.4522,1.4523,1.4547,1.4553,1.4562,1.4574,1.4575,1.4588,1.4598,1.4598,1.458,1.4577,1.4575,1.4572,1.4594,0,0,0,0,0,1.4391,1.4402,1.443,1.4435,1.4443,1.4467,1.4475,1.4489,1.4507,1.4514,1.4532,1.4549,1.4562,1.457,1.4584,1.4591,1.4597,1.4592,1.459,1.4588,1.4588,1.4594,1.4592,1.461,1.461,1.461,0,0,1.438,1.4399,1.4404,1.4429,1.4444,1.4455,1.4472,1.4483,1.4492,1.4515,1.4528,1.4541,1.4562,1.4571,1.4576,1.4582,1.4585,1.4588,1.4586,1.4587,1.4593,1.4592,1.459,1.4609,1.4609,1.4609,0,0,1.4365,1.4381,1.4387,1.4402,1.4424,1.444,1.4442,1.4468,1.4478,1.4491,1.4509,1.452,1.4542,1.4557,1.4567,1.456,1.4573,1.4564,1.4553,1.4558,1.4557,1.4556,1.4554,1.4553,1.4564,1.4564,1.4563,0,1.4348,1.4366,1.4388,1.4398,1.4409,1.4432,1.4439,1.4452,1.4478,1.4485,1.4491,1.4521,1.4536,1.455,1.4548,1.4556,1.4559,1.4561,1.4555,1.4554,1.4554,1.4552,1.4552,1.4562,1.4562,1.4563,1.4563,0,1.4344,1.4357,1.4359,1.4384,1.4395,1.4403,1.4427,1.4436,1.445,1.4466,1.4479,1.4499,1.4517,1.4522,1.4535,1.4538,1.4541,1.4551,1.4561,1.455,1.455,1.4549,1.4561,1.4561,1.4561,1.4562,0,0,1.4311,1.435,1.435,1.4363,1.439,1.44,1.441,1.4429,1.4437,1.4454,1.4463,1.4483,1.4493,1.4504,1.4519,1.4524,1.4518,1.4533,1.4534,1.4531,1.4525,1.4517,1.4516,1.4528,1.4528,1.4527,1.4523,0,1.4301,1.432,1.4342,1.4354,1.4366,1.4389,1.4398,1.4416,1.4431,1.4444,1.4461,1.4475,1.4487,1.4494,1.45,1.4518,1.4518,1.4518,1.4537,1.4537,1.4531,1.4516,1.4507,1.4502,1.4523,1.4523,1.4523,0,1.4291,1.4309,1.4322,1.435,1.4356,1.4364,1.4384,1.4396,1.4417,1.4428,1.4442,1.4458,1.4471,1.448,1.4498,1.4498,1.4507,1.4517,1.4517,1.452,1.4529,1.4518,1.4501,1.45,1.4522,1.4522,1.4522,0,1.4267,1.4293,1.4305,1.4315,1.4348,1.4353,1.4366,1.4388,1.4399,1.4417,1.4424,1.4443,1.4453,1.4467,1.4488,1.4493,1.4504,1.4515,1.4514,1.4514,1.4515,1.4515,1.4499,1.452,1.452,1.452,1.452,0,1.4253,1.4261,1.4295,1.4302,1.4312,1.4337,1.4346,1.4361,1.4381,1.4392,1.4413,1.4423,1.445,1.4464,1.448,1.4493,1.4497,1.4507,1.4511,1.4505,1.4504,1.4511,1.4512,1.452,1.452,1.452,1.452,0,1.4227,1.425,1.4265,1.4295,1.4303,1.4309,1.4335,1.4343,1.4361,1.4375,1.4379,1.4407,1.4424,1.4447,1.447,1.4482,1.4493,1.4499,1.4486,1.4488,1.4486,1.4487,1.4476,1.4476,1.4496,1.4496,1.4495,0,1.4217,1.4224,1.4255,1.4265,1.4278,1.4292,1.4304,1.4329,1.434,1.4366,1.4372,1.4391,1.4407,1.4433,1.4455,1.4474,1.4482,1.4477,1.4484,1.4479,1.4482,1.4482,1.4483,1.4474,1.4474,1.4474,1.4474,0,1.4197,1.4209,1.4225,1.4245,1.4259,1.4276,1.4294,1.4301,1.433,1.4341,1.436,1.4372,1.4398,1.4417,1.4439,1.4453,1.4468,1.4471,1.4472,1.4466,1.4458,1.4463,1.4481,1.4471,1.4471,1.4471,1.4472,1.4472,1.4179,1.4187,1.4211,1.4228,1.4245,1.4262,1.4272,1.4291,1.4307,1.433,1.4344,1.4362,1.4384,1.4416,1.443,1.4444,1.445,1.4451,1.4452,1.4452,1.445,1.4456,1.4448,1.4448,1.4448,1.4449,1.4449,0,1.4161,1.4178,1.4194,1.422,1.4234,1.4248,1.4269,1.428,1.4296,1.4316,1.4332,1.4354,1.4373,1.4397,1.4417,1.4425,1.4432,1.4429,1.4429,1.4432,1.4443,1.4441,1.4423,1.4423,1.4423,1.4423,1.4423,1.4423,1.4153,1.4167,1.4182,1.4205,1.4222,1.424,1.4251,1.4267,1.4284,1.4307,1.4323,1.4339,1.4361,1.4384,1.4402,1.4409,1.4416,1.4411,1.4419,1.4429,1.4431,1.4433,1.4431,1.4412,1.4412,1.4407,1.4407,1.4407]}]]